{"data":{"norad_id":58274,"intl_designator":"2023-174U","name":"FLOCK 4Q-36","alt_names":[],"object_type":"PAYLOAD","status":"ACTIVE","operator":null,"country":"US","launch_date":"2023-11-11","launch_site_code":"AFWTR","launch_vehicle":null,"mission":null,"orbit_class":"UNKNOWN","rcs_meters":null,"size_class":null,"mass_kg":null,"dimensions":null,"purposes":["earth_obs"],"wikipedia_slug":null,"has_3d_model":false,"image_url":null,"decayed_at":null,"tle_current":{"epoch":"2026-06-13T18:54:27.347328Z","epoch_age_seconds":8543197,"freshness":"OLD","line1":"1 58274U 23174U   26164.78781652  .00035696  00000+0  47446-3 0  9992","line2":"2 58274  97.3859 257.0767 0007440 156.1933 203.9668 15.58090395145308","mean_motion":15.58090395,"eccentricity":0.000744,"inclination_deg":97.3859,"raan_deg":257.0767,"arg_perigee_deg":156.1933,"mean_anomaly_deg":203.9668,"bstar":0.00047446,"rev_number":14530,"period_min":92.420825172984,"perigee_km":388.14622133582,"apogee_km":398.22194710915,"semimajor_km":6771.3210842225,"source":"CELESTRAK","updated_at":"2026-06-14T09:00:51.996259Z"}}}